1309219232116,17.2931
1309219292116,17.3541
1309219352116,17.3211
1309219412116,17.2847
1309219472116,17.2704
1309219532116,17.2984
1309219592116,17.3389
1309219652116,17.3334
1309219712116,17.3098
1309219772116,17.2914
1309219832116,17.2984
1309219892116,17.3124
1309219952116,17.2440
1309220012116,17.2986
1309220072116,17.2830
1309220132116,17.3264
1309220192116,17.2312
1309220252116,17.2336
1309220312116,17.2900
1309220372116,17.2982
1309220432116,17.2513
1309220492116,17.2273
1309220552116,17.2909
1309220612116,17.3053
1309220672116,17.2410
1309220732116,17.2222
1309220792116,17.2362
1309220852116,17.2413
1309220912116,17.2551
1309220972116,17.2359
1309221032116,17.2362
1309221092116,17.2807
1309221152116,17.2760
1309221212116,17.2476
1309221272116,17.2856
1309221332116,17.2568
1309221392116,17.2601
1309221452116,17.3124
1309221512116,17.2637
1309221572116,17.2897
1309221632116,17.2873
1309221692116,17.3536
1309221752116,17.3131
1309221812116,17.2801
1309221872116,17.3171
1309221932116,17.3067
1309221992116,17.2689
1309222052116,17.2833
1309222112116,17.2961
1309222172116,17.2721
1309222232116,17.2827
1309222292116,17.2987
1309222352116,17.3315
1309222412116,17.2672
1309222472116,17.2992
1309222532116,17.2619
1309222592116,17.2398
1309222652116,17.2496
1309222712116,17.2980
1309222772116,17.3164
1309222832126,17.3009
1309222892126,17.2870
1309222952126,17.2706
1309223012126,17.2428
1309223072126,17.3169
1309223132126,17.2643
1309223192126,17.2878
1309223252126,17.2820
1309223312126,17.2311
1309223372126,17.2922
1309223432126,17.3111
1309223492126,17.2754
1309223552126,17.2472
1309223612126,17.2661
1309223672126,17.3197
1309223732126,17.2984
1309223792126,17.3201
1309223852126,17.3155
1309223912126,17.2626
1309223972126,17.3008
1309224032126,17.2903
1309224092126,17.2674
1309224152126,17.2929
1309224212126,17.2698
1309224272126,17.2927
1309224332126,17.2862
1309224392126,17.2857
1309224452126,17.2480
1309224512126,17.2981
1309224572126,17.2832
1309224632126,17.2548
1309224692126,17.2717
1309224752126,17.2487
1309224812126,17.2086
1309224872126,17.2760
1309224932126,17.2444
1309224992126,17.2543
1309225052126,17.2456
1309225112126,17.2568
1309225172126,17.3003
1309225232126,17.2549
1309225292126,17.3053
1309225352126,17.2658
1309225412126,17.2891
1309225472126,17.2941
1309225532126,17.2415
1309225592126,17.3013
1309225652126,17.2955
1309225712126,17.3261
1309225772126,17.2653
1309225832126,17.3127
1309225892126,17.2909
1309225952126,17.3031
1309226012126,17.2989
1309226072126,17.2966
1309226132126,17.2799
1309226192126,17.2738
1309226252126,17.2586
1309226312126,17.3055
1309226372126,17.3349
1309226432136,17.3095
1309226492136,17.3356
1309226552136,17.3109
1309226612136,17.2993
1309226672136,17.2781
1309226732136,17.2633
1309226792136,17.2682
1309226852136,17.2823
1309226912136,17.2873
1309226972135,17.2472
1309227032135,17.3006
1309227092135,17.3091
1309227152135,17.3028
1309227212135,17.2780
1309227272135,17.2966
1309227332135,17.2972
1309227392135,17.2840
1309227452136,17.2940
1309227512136,17.2966
1309227572136,17.3075
1309227632135,17.3384
1309227692135,17.3163
1309227752135,17.3289
1309227812136,17.3537
1309227872136,17.2826
1309227932136,17.3126
1309227992136,17.2882
1309228052136,17.2935
1309228112136,17.2991
1309228172136,17.2742
1309228232136,17.3163
1309228292135,17.2862
1309228352135,17.3143
1309228412135,17.2557
1309228472135,17.2852
1309228532135,17.2582
1309228592135,17.3225
1309228652135,17.3183
1309228712135,17.3312
1309228772135,17.3311
1309228832136,17.3761
1309228892136,17.3389
1309228952135,17.3252
1309229012135,17.2901
1309229072135,17.3100
1309229132136,17.3189
1309229192136,17.3411
1309229252136,17.3190
1309229312136,17.3720
1309229372136,17.3712
1309229432136,17.3190
1309229492136,17.3436
1309229552136,17.3174
1309229612136,17.2594
1309229672135,17.3435
1309229732135,17.3166
1309229792135,17.3104
1309229852135,17.3251
1309229912135,17.2824
1309229972135,17.2698
1309230032145,17.3147
1309230092145,17.3605
1309230152145,17.3098
1309230212145,17.2723
1309230272145,17.2945
1309230332145,17.2713
1309230392145,17.3330
1309230452145,17.2810
1309230512145,17.3111
1309230572145,17.2773
1309230632145,17.3152
1309230692145,17.2659
1309231232145,17.3391
1309231292145,17.3101
1309231352145,17.3796
1309231412145,17.2846
1309231472145,17.3531
1309231532145,17.4139
1309231592145,17.3182
1309231652145,17.2987
1309231712145,17.3191
1309231772145,17.3546
1309231832145,17.3278
1309231892145,17.3069
1309231952145,17.3162
1309232012145,17.3099
1309232072145,17.2738
1309232132145,17.3433
1309232192145,17.3159
1309232252145,17.3143
1309232312145,17.3391
1309232372145,17.3413
1309232432145,17.3272
1309232492145,17.3729
1309232552145,17.3567
1309232612145,17.3954
1309232672145,17.3291
1309232732145,17.3902
1309232792145,17.4151
1309232852145,17.3940
1309232912145,17.3931
1309232972145,17.3766
1309233032145,17.4194
1309233092145,17.4066
1309233152145,17.3505
1309233212145,17.3986
1309233272145,17.3965
1309233332145,17.3837
1309233392145,17.3449
1309233452145,17.4002
1309233512145,17.4063
1309233572145,17.3930
1309233632154,17.3866
1309233692154,17.2935
1309233752154,17.4043
1309233812154,17.3619
1309233872154,17.3649
1309233932154,17.3993
1309233992154,17.3967
1309234052154,17.4325
1309234112154,17.3885
1309234172154,17.4017
1309234232154,17.4239
1309234292154,17.3909
1309234352154,17.3895
1309234412154,17.3876
1309234472154,17.4250
1309234532154,17.4090
1309234592154,17.3533
1309234652154,17.3305
1309234712154,17.3447
1309234772154,17.3614
1309234832154,17.3984
1309234892154,17.3297
1309234952154,17.3374
1309235012154,17.3760
1309235072154,17.4127
1309235132154,17.3753
1309235192154,17.3705
1309235252154,17.3703
1309235312154,17.3733
1309235372154,17.3338
1309235432154,17.3631
1309235492154,17.3485
1309235552154,17.3896
1309235612154,17.3226
1309235672154,17.3552
1309235732154,17.3311
1309235792154,17.3417
1309235852154,17.3409
1309235912154,17.3878
1309235972154,17.3586
1309236032154,17.4244
1309236092154,17.4007
1309236152154,17.3936
1309236212154,17.3972
1309236272154,17.3381
1309236332154,17.3608
1309236392154,17.3953
1309236452154,17.3883
1309236512154,17.3934
1309236572154,17.3359
1309236632154,17.3489
1309236692154,17.3910
1309236752154,17.3431
1309236812154,17.3705
1309236872154,17.3759
1309236932154,17.4073
1309236992154,17.4407
1309237052154,17.3721
1309237112154,17.4162
1309237172154,17.4117
1309237232163,17.4377
1309237292163,17.4152
1309237352163,17.3919
1309237412163,17.3983
1309237472163,17.4125
1309237532163,17.4158
1309237592163,17.4327
1309237652163,17.4234
1309237712163,17.4036
1309237772163,17.3779
1309237832163,17.3807
1309237892163,17.4170
1309237952163,17.3968
1309238012163,17.3762
1309238072163,17.3657
1309238132163,17.3905
1309238192163,17.3418
1309238252163,17.3757
1309238312163,17.3836
1309238372163,17.3747
1309238432163,17.3724
1309238492163,17.3360
1309238552163,17.3287
1309238612163,17.3444
1309238672163,17.3411
1309238732163,17.3282
1309238792163,17.2840
1309238852163,17.3264
1309238912163,17.3189
1309238972163,17.3034
1309239032163,17.2961
1309239092163,17.3212
1309239152163,17.3297
1309239212163,17.3342
1309239272163,17.3399
1309239332163,17.2976
1309239392163,17.2899
1309239452163,17.2866
1309239512163,17.2726
1309239572163,17.2810
1309239632163,17.2645
1309239692163,17.2804
1309239752163,17.2769
1309239812163,17.2751
1309239872163,17.2497
1309239932163,17.3330
1309239992163,17.2691
1309240052163,17.2924
1309240112163,17.2601
1309240172163,17.2695
1309240232163,17.2914
1309240292163,17.2597
1309240352163,17.2956
1309240412163,17.2843
1309240472163,17.2970
1309240532163,17.2738
1309240592163,17.3023
1309240652163,17.2183
1309240712163,17.2933
1309240772163,17.2562
1309240832172,17.2556
1309240892172,17.2603
1309240952172,17.3123
1309241012172,17.2660
1309241072172,17.2481
1309241132172,17.2518
1309241192172,17.2200
1309241252172,17.2938
1309241312172,17.2849
1309241372172,17.2540
1309241432172,17.2950
1309241492172,17.2706
1309241552172,17.2565
1309241612172,17.2357
1309241672172,17.2176
1309241732172,17.2253
1309241792172,17.2111
1309241852172,17.2414
1309241912172,17.2768
1309241972172,17.2312
1309242032172,17.2332
1309242092172,17.1987
1309242152172,17.2646
1309242212172,17.2687
1309242272172,17.2534
1309242332172,17.2254
1309242392172,17.2436
1309242452172,17.2539
1309242512172,17.2246
1309242572172,17.1878
1309242632172,17.1986
1309242692172,17.2099
1309242752172,17.2378
1309242812172,17.2696
1309242872172,17.1928
1309242932172,17.1891
1309242992172,17.2176
1309243052172,17.1860
1309243112172,17.1969
1309243172172,17.2208
1309243232172,17.2060
1309243292172,17.2176
1309243352172,17.2296
1309243412172,17.1366
1309243472172,17.2287
1309243532172,17.1915
1309243592172,17.2720
1309243652172,17.3604
1309243712172,17.2848
1309243772172,17.2239
1309243832172,17.2183
1309243892172,17.2702
1309243952172,17.2287
1309244012172,17.2495
1309244072172,17.2309
1309244132172,17.2530
1309244192172,17.2687
1309244252172,17.2783
1309244312172,17.2628
1309244372172,17.2720
1309244432181,17.2770
1309244492181,17.2864
1309244552181,17.2997
1309244612181,17.3165
1309244672181,17.3124
1309244732181,17.3125
1309244792181,17.2622
1309244852181,17.2994
1309244912181,17.3200
1309244972181,17.2925
1309245032181,17.2719
1309245092181,17.3154
1309245152181,17.2996
1309245212181,17.3209
1309245272181,17.2301
1309245332181,17.2904
1309245392181,17.3190
1309245452181,17.2648
1309245512181,17.2501
1309245572181,17.2476
1309245632181,17.2306
1309245692181,17.2253
1309245752181,17.2073
1309245812181,17.2313
1309245872181,17.2549
1309245932181,17.1979
1309245992181,17.2555
1309246052181,17.1623
1309246112181,17.2460
1309246172181,17.2673
1309246232181,17.2545
1309246292181,17.2386
1309246352181,17.2416
1309246412181,17.2244
1309246472181,17.2144
1309246532181,17.2709
1309246592181,17.2891
1309246652181,17.2751
1309246712181,17.2744
1309246772181,17.2750
1309246832181,17.2376
1309246892181,17.2475
1309246952181,17.2784
1309247012181,17.2530
1309247072181,17.2223
1309247132181,17.2416
1309247192181,17.2908
1309247252181,17.3355
1309247312181,17.2363
1309247372181,17.2118
1309247432181,17.1945
1309247492181,17.1708
1309247552181,17.2246
1309247612181,17.2313
1309247672181,17.2412
1309247732181,17.2297
1309247792181,17.2191
1309247852181,17.1918
1309247912181,17.2021
1309247972181,17.2156
1309248032190,17.2434
1309248092190,17.2437
1309248152190,17.2522
1309248212190,17.1999
1309248272190,17.2036
1309248332190,17.2031
1309248392190,17.1910
1309248452190,17.1612
1309248512190,17.2195
1309248572190,17.2411
1309248632190,17.1858
1309248692190,17.2230
1309248752190,17.1578
1309248812190,17.2481
1309248872190,17.1740
1309248932190,17.1589
1309248992190,17.2175
1309249052190,17.2539
1309249112190,17.1998
1309249172190,17.2238
1309249232190,17.2633
1309249292190,17.2301
1309249352190,17.2033
1309249412190,17.2234
1309249472190,17.2160
1309249532190,17.2764
1309249592190,17.2362
1309249652190,17.2306
1309249712190,17.2382
1309249772190,17.2627
1309249832190,17.2029
1309249892190,17.2196
1309249952190,17.2031
1309250012190,17.1946
1309250072190,17.2622
1309250132190,17.2381
1309250192190,17.2312
1309250252190,17.2692
1309250312190,17.2419
1309250372190,17.1959
1309250432190,17.1593
1309250492190,17.2215
1309250552190,17.2067
1309250612190,17.2354
1309250672190,17.2138
1309250732190,17.2916
1309250792190,17.2752
1309250852190,17.2543
1309250912190,17.2430
1309250972190,17.2788
1309251032190,17.2947
1309251092190,17.2351
1309251152190,17.2919
1309251212190,17.2722
1309251272190,17.2517
1309251332190,17.2552
1309251392190,17.2609
1309251452190,17.2619
1309251512190,17.2629
1309251572190,17.2650
1309251632199,17.2705
1309251692199,17.2844
1309251752199,17.2841
1309251812199,17.2822
1309251872199,17.2461
1309251932199,17.2860
1309251992199,17.3019
1309252052199,17.2597
1309252112199,17.3359
1309252172199,17.2910
1309252232199,17.2216
1309252292199,17.3132
1309252352199,17.2573
1309252412199,17.3108
1309252472199,17.2917
1309252532199,17.3040
1309252592199,17.3336
1309252652199,17.2698
1309252712198,17.3286
1309252772199,17.3573
1309252832199,17.3067
1309252892199,17.2905
1309252952199,17.3214
1309253012199,17.2703
1309253072199,17.3282
1309253132199,17.3114
1309253192199,17.3393
1309253252199,17.3199
1309253312199,17.3376
1309253372199,17.2796
1309253432199,17.2500
1309253492199,17.2926
1309253552199,17.2828
1309253612199,17.2887
1309253672199,17.2905
1309253732199,17.2729
1309253792199,17.3332
1309253852199,17.3185
1309253912199,17.3503
1309253972199,17.3127
1309254032198,17.3403
1309254092199,17.3423
1309254152199,17.3345
1309254212199,17.4021
1309254272199,17.4082
1309254332199,17.3532
1309254392199,17.3603
1309254452199,17.3931
1309254512199,17.3389
1309254572199,17.3268
1309254632199,17.3875
1309254692199,17.3359
1309254752199,17.2860
1309254812199,17.3313
1309254872199,17.3154
1309254932199,17.3433
1309254992199,17.3227
1309255052199,17.2702
1309255112199,17.3466
1309255172199,17.3501
1309255232207,17.3587
1309255292207,17.3317
1309255352207,17.2589
1309255412207,17.2499
1309255472207,17.3134
1309255532207,17.3149
1309255592207,17.3179
1309255652207,17.3187
1309255712207,17.3568
1309255772207,17.3028
1309255832207,17.3039
1309255892207,17.3590
1309255952207,17.3182
1309256012207,17.3455
1309256072207,17.3664
1309256132207,17.3555
1309256192207,17.3186
1309256252207,17.3700
1309256312207,17.3254
1309256372207,17.3233
1309256432207,17.3322
1309256492207,17.2958
1309256552207,17.2862
1309256612207,17.3192
1309256672207,17.3310
1309256732207,17.3260
1309256792207,17.3426
1309256852207,17.3110
1309256912207,17.3032
1309256972207,17.3688
1309257032207,17.2989
1309257092207,17.2571
1309257152207,17.2402
1309257212207,17.3288
1309257272207,17.2663
1309257332207,17.2884
1309257392207,17.2817
1309257452207,17.3197
1309257512207,17.2793
1309257572207,17.2562
1309257632207,17.2502
1309257692207,17.3081
1309257752207,17.3190
1309257812207,17.2576
1309257872207,17.2781
1309257932207,17.2816
1309257992207,17.2359
1309258052207,17.2791
1309258112207,17.8142
1309258172207,17.2581
1309258232207,17.2333
1309258292207,17.2306
1309258352207,17.2671
1309258412207,17.2645
1309258472207,17.2283
1309258532207,17.2371
1309258592207,17.2408
1309258652207,17.2577
1309258712207,17.3262
1309258772207,17.2346
1309258832216,17.2719
1309258892216,17.2437
1309258952216,17.2279
1309259012216,17.2418
1309259072216,17.2689
1309259132216,17.2458
1309259192216,17.2513
1309259252216,17.3156
1309259312216,17.3009
1309259372216,17.2798
1309259432216,17.2924
1309259492216,17.2216
1309259552216,17.2801
1309259612216,17.2516
1309259672216,17.2826
1309259732216,17.2362
1309259792216,17.2235
1309259852216,17.2536
1309259912216,17.2497
1309259972216,17.1868
1309260032216,17.2565
1309260092216,17.2732
1309260152216,17.2305
1309260212216,17.2756
1309260272216,17.2186
1309260332216,17.2643
1309260392216,17.2563
1309260452216,17.3006
1309260512216,17.2949
1309260572216,17.2627
1309260632216,17.2191
1309260692216,17.2029
1309260752216,17.2288
1309260812216,17.2355
1309260872216,17.2342
1309260932216,17.2452
1309260992216,17.2219
1309261052216,17.1989
1309261112216,17.2221
1309261172216,17.1870
1309261232216,17.2164
1309261292216,17.1813
1309261352216,17.2187
1309261412216,17.1627
1309261472216,17.1926
1309261532216,17.2091
1309261592216,17.2417
1309261652216,17.1836
1309261712216,17.2412
1309261772216,17.2403
1309261832216,17.1936
1309261892216,17.2391
1309261952216,17.2132
1309262012216,17.2540
1309262072216,17.1989
1309262132216,17.2244
1309262192216,17.2174
1309262252216,17.2015
1309262312216,17.2631
1309262372216,17.2904
1309262432225,17.2978
1309262492225,17.3055
1309262552225,17.2621
1309262612225,17.2270
1309262672225,17.2165
1309262732225,17.2358
1309262792225,17.3021
1309262852225,17.2862
1309262912225,17.2361
1309262972225,17.2719
1309263032225,17.2339
1309263092225,17.2859
1309263152225,17.2322
1309263212225,17.2827
1309263272225,17.2528
1309263332225,17.2769
1309263392225,17.2778
1309263452225,17.2423
1309263512225,17.2487
1309263572225,17.2918
1309263632225,17.2983
1309263692225,17.2750
1309263752225,17.2660
1309263812225,17.3389
1309263872225,17.2909
1309263932225,17.2714
1309263992225,17.2969
1309264052225,17.2910
1309264112225,17.2797
1309264172225,17.2581
1309264232225,17.3055
1309264292225,17.3071
1309264352225,17.2407
1309264412225,17.2846
1309264472225,17.2704
1309264532225,17.3194
1309264592225,17.3170
1309264652225,17.2691
1309264712225,17.2925
1309264772225,17.2584
1309264832225,17.2811
1309264892225,17.2734
1309264952225,17.2676
1309265012225,17.3019
1309265072225,17.3111
1309265132225,17.2709
1309265192225,17.2758
1309265252225,17.2766
1309265312225,17.2708
1309265372225,17.2728
1309265432225,17.2437
1309265492225,17.2686
1309265552225,17.2895
1309265612225,17.2602
1309265672225,17.2667
1309265732225,17.2896
1309265792225,17.2971
1309265852225,17.2305
1309265912225,17.2712
1309265972225,17.2975
1309266032234,17.2736
1309266092234,17.2764
1309266152234,17.2775
1309266212234,17.3025
1309266272234,17.2935
1309266332234,17.2760
1309266392234,17.2657
1309266452234,17.2938
1309266512234,17.2800
1309266572234,17.2771
1309266632234,17.2870
1309266692234,17.2637
1309266752234,17.2896
1309266812234,17.2481
1309266872234,17.2679
1309266932234,17.2278
1309266992234,17.2825
1309267052234,17.2722
1309267112234,17.2153
1309267172234,17.2968
1309267232234,17.2994
1309267292234,17.2860
1309267352234,17.3045
1309267412234,17.3362
1309267472234,17.3249
1309267532234,17.2799
1309267592234,17.2857
1309267652234,17.2185
1309267712234,17.3396
1309267772234,17.3818
1309267832234,17.2503
1309267892234,17.3263
1309267952234,17.3686
1309268012234,17.3077
1309268072234,17.3176
1309268132234,17.2936
1309268192234,17.3421
1309268252234,17.3163
1309268312234,17.2917
1309268372234,17.3322
1309268432234,17.3321
1309268492234,17.3879
1309268552234,17.3070
1309268612234,17.2778
1309268672234,17.3801
1309268732234,17.3214
1309268792234,17.2983
1309268852234,17.3265
1309268912234,17.3462
1309268972234,17.3146
1309269032234,17.3269
1309269092234,17.3051
1309269152234,17.2996
1309269212234,17.3454
1309269272234,17.3247
1309269332234,17.3164
1309269392234,17.2910
1309269452234,17.3658
1309269512234,17.2715
1309269572234,17.2670
1309269632243,17.3468
1309269692243,17.3237
1309269752243,17.3179
1309269812243,17.3570
1309269872243,17.3118
1309269932243,17.3057
1309269992243,17.2825
1309270052243,17.3528
1309270112243,17.3195
1309270172243,17.3192
1309270232243,17.2686
1309270292243,17.3130
1309270352243,17.3287
1309270412243,17.2586
1309270472243,17.2943
1309270532243,17.3841
1309270592243,17.2936
1309270652243,17.3218
1309270712243,17.3249
1309270772243,17.3490
1309270832243,17.2978
1309270892243,17.3276
1309270952243,17.3414
1309271012243,17.2895
1309271072243,17.3122
1309271132243,17.3087
1309271192243,17.3411
1309271252243,17.3368
1309271312243,17.3176
1309271372243,17.3276
1309271432243,17.3199
1309271492243,17.3312
1309271552243,17.3322
1309271612243,17.3308
1309271672243,17.2739
1309271732243,17.3299
1309271792243,17.3227
1309271852243,17.3368
1309271912243,17.3205
1309271972243,17.2526
1309272032243,17.3220
1309272092243,17.3461
1309272152243,17.3366
1309272212243,17.3028
1309272272243,17.2683
1309272332243,17.3437
1309272392243,17.3243
1309272452243,17.2781
1309272512243,17.2934
1309272572243,17.2918
1309272632243,17.2813
1309272692243,17.3207
1309272752243,17.3318
1309272812243,17.3323
1309272872243,17.3237
1309272932243,17.3031
1309272992243,17.3254
1309273052243,17.3961
1309273112243,17.3028
1309273172243,17.2867
1309273232252,17.3341
1309273292252,17.2555
1309273352252,17.2702
1309273412252,17.2573
1309273472252,17.2766
1309273532252,17.3356
1309273592252,17.3148
1309273652252,17.2797
1309273712252,17.3427
1309273772252,17.3198
1309273832252,17.2895
1309273892252,17.3663
1309273952252,17.2867
1309274012252,17.2899
1309274072252,17.3313
1309274132252,17.2751
1309274192252,17.2995
1309274252252,17.3163
1309274312252,17.3326
1309274372252,17.3941
1309274432252,17.3359
1309274492252,17.3139
1309274552252,17.3428
1309274612252,17.3148
1309274672252,17.3114
1309274732252,17.2715
1309274792252,17.3500
1309274852252,17.3310
1309274912252,17.3388
1309274972252,17.3178
1309275032252,17.3217
1309275092252,17.3166
1309275152252,17.3667
1309275212252,17.3320
1309275272252,17.3246
1309275332252,17.3020
1309275392252,17.2854
1309275452252,17.2751
1309275512252,17.3006
1309275572252,17.3322
1309275632252,17.2809
1309275692252,17.2631
1309275752252,17.3141
1309275812252,17.2974
1309275872252,17.2817
1309275932252,17.3020
1309275992252,17.3203
1309276052252,17.2843
1309276112252,17.2728
1309276172252,17.2629
1309276232252,17.2605
1309276292252,17.3006
1309276352252,17.2665
1309276412252,17.2678
1309276472252,17.2995
1309276532252,17.2625
1309276592252,17.2648
1309276652252,17.2589
1309276712252,17.2410
1309276772252,17.2882
1309276832261,17.2688
1309276892261,17.3035
1309276952261,17.2812
1309277012261,17.3092
1309277072261,17.2366
1309277132261,17.2746
1309277192261,17.2712
1309277252261,17.2951
1309277312261,17.3112
1309277372261,17.2533
1309277432261,17.2998
1309277492261,17.2487
1309277552261,17.2955
1309277612261,17.2911
1309277672261,17.3109
1309277732261,17.3602
1309277792261,17.3102
1309277852261,17.2555
1309277912261,17.2810
1309277972261,17.2841
1309278032261,17.2937
1309278092261,17.3118
1309278152261,17.2658
1309278212261,17.3169
1309278272261,17.3144
1309278332261,17.3281
1309278392261,17.2711
1309278452261,17.3620
1309278512261,17.2931
1309278572261,17.3676
1309278632261,17.2932
1309278692261,17.3515
1309278752261,17.3701
1309278812261,17.3071
1309278872261,17.3262
1309278932261,17.3382
1309278992261,17.4069
1309279052261,17.3410
1309279112261,17.3137
1309279172261,17.3278
1309279232261,17.3230
1309279292261,17.2880
1309279352261,17.3267
1309279412261,17.2882
1309279472261,17.3514
1309279532261,17.2983
1309279592261,17.3207
1309279652261,17.3200
1309279712261,17.3124
1309279772261,17.3260
1309279832261,17.2852
1309279892261,17.3314
1309279952261,17.3537
1309280012261,17.3125
1309280072261,17.2918
1309280132261,17.3418
1309280192261,17.3102
1309280252261,17.3229
1309280312261,17.2298
1309280372261,17.2423
1309280432271,17.2441
1309280492271,17.2921
1309280552271,17.2605
1309280612271,17.2644
1309280672271,17.2307
1309280732271,17.2496
1309280792271,17.2609
1309280852271,17.3116
1309280912271,17.2984
1309280972271,17.2829
1309281032271,17.3298
1309281092271,17.2940
1309281152271,17.2903
1309281212271,17.2985
1309281272271,17.2617
1309281332271,17.2859
1309281392271,17.2575
1309281452271,17.3176
1309281512271,17.3105
1309281572271,17.2974
1309281632271,17.2693
1309281692271,17.2789
1309281752271,17.2983
1309281812271,17.2603
1309281872271,17.2635
1309281932271,17.3222
1309281992271,17.3057
1309282052271,17.3176
1309282112271,17.2903
1309282172271,17.3081
1309282232271,17.2553
1309282292271,17.2557
1309282352271,17.2967
1309282412271,17.2807
1309282472271,17.2832
1309282532271,17.2792
1309282592271,17.1882
1309282652271,17.2406
1309282712271,17.2829
1309282772271,17.3104
1309282832271,17.2469
1309282892271,17.2694
1309282952271,17.2483
1309283012271,17.2726
1309283072271,17.2349
1309283132271,17.2401
1309283192271,17.2309
1309283252271,17.2202
1309283312271,17.2416
1309283372271,17.2918
1309283432271,17.2844
1309283492271,17.2792
1309283552271,17.2929
1309283612271,17.3314
1309283672271,17.2679
1309283732271,17.2586
1309283792271,17.2924
1309283852271,17.2979
1309283912271,17.2420
1309283972271,17.2834
1309284032281,17.2763
1309284092281,17.2786
1309284152281,17.2846
1309284212281,17.2883
1309284272281,17.2985
1309284332281,17.2261
1309284392281,17.2424
1309284452281,17.2649
1309284512281,17.2454
1309284572281,17.2306
1309284632281,17.2871
1309284692281,17.2658
1309284752281,17.2849
1309284812281,17.2608
1309284872281,17.2282
1309284932281,17.2486
1309284992281,17.2016
1309285052281,17.2594